sat.trackr.live / text

‹ back to catalog

GHGSAT-C2

NORAD 47509 · 2021-006DA

PAYLOAD ACTIVE UNKNOWN

§ Identity

Operator
Country
CA
Launch date
2021-01-24
Launch site
AFETR
Launch vehicle
Mass (kg)
RCS (m²)

External: N2YO · Heavens-Above · Gunter

§ Orbital elements

Epoch: 2026-09-20T13:50:54.674016Z

Period
93.58 min
Inclination
97.2059°
Eccentricity
0.0005315
Mean motion
15.38757024 rev/d
Perigee alt
446.2 km
Apogee alt
453.4 km
Semi-major
6,827.9 km
B*
1.1382e-4
RAAN
309.2242°
Arg perigee
163.6072°
Mean anomaly
196.5346°
Rev number
31,451

§ Raw data

GHGSAT-C21 47509U 21006DA  26263.57702169  .00004280  00000+0  11382-3 0  99912 47509  97.2059 309.2242 0005315 163.6072 196.5346 15.38757024314510

JSON: /api/v1/satellites/47509 · /tle

For live sub-satellite position, see the globe view (requires WebGL).

§ Visibility from observer

Set your observer location to see the next 7 days of passes ≥ 10°. The values pass through the URL so the page stays shareable.

No JS? Fill the form by hand. The geolocation button needs JavaScript.